QPF
0.01 0.04 0.05 0.01 0.01 0.01 0.02 0.04 0.06 0.02 0.00 0.01 0.01 0.03 0.02 0.01 0.01 0.00 0.01 0.01 0.01 0.01 0.01 0.00 0.00 0.00 0.00 0.00 0.00 0.00 0.00 0.00 0.00 0.00 0.00 0.00 0.00 0.00 0.00 0.00 0.00 0.00 0.00 0.00
0.03 0.03 0.01 0.01 0.00 0.01 0.02 0.06 0.07 0.02 0.00 0.01 0.02 0.02 0.01 0.01 0.01 0.00 0.01 0.01 0.00 0.00 0.01 0.01 0.01 0.01 0.02 0.03 0.01 0.00 0.00 0.00 0.00 0.00 0.00 0.00 0.00 0.00 0.00 0.00 0.00 0.00 0.00 0.00
0.03 0.02 0.01 0.01 0.00 0.01 0.04 0.06 0.04 0.02 0.01 0.01 0.02 0.03 0.01 0.01 0.01 0.00 0.00 0.00 0.00 0.00 0.01 0.02 0.01 0.01 0.01 0.01 0.00 0.00 0.00 0.00 0.00 0.00 0.00 0.00 0.00 0.00 0.00 0.00 0.00 0.00 0.00 0.00
0.02 0.01 0.00 0.01 0.01 0.03 0.07 0.04 0.02 0.01 0.02 0.02 0.03 0.05 0.02 0.01 0.01 0.01 0.00 0.00 0.00 0.00 0.00 0.00 0.01 0.01 0.01 0.00 0.00 0.00 0.00 0.00 0.00 0.00 0.00 0.00 0.00 0.00 0.00 0.00 0.00 0.00 0.00 0.00
0.04 0.02 0.01 0.03 0.03 0.04 0.03 0.01 0.01 0.01 0.02 0.02 0.03 0.02 0.01 0.01 0.01 0.01 0.00 0.00 0.00 0.00 0.00 0.00 0.00 0.00 0.00 0.00 0.00 0.00 0.00 0.00 0.00 0.00 0.00 0.00 0.00 0.00 0.00 0.00 0.00 0.00 0.00 0.00
0.04 0.01 0.02 0.04 0.02 0.02 0.01 0.01 0.02 0.03 0.02 0.03 0.02 0.02 0.02 0.00 0.00 0.00 0.00 0.00 0.00 0.00 0.00 0.00 0.00 0.00 0.00 0.00 0.00 0.00 0.00 0.00 0.00 0.00 0.00 0.00 0.00 0.00 0.00 0.00 0.00 0.00 0.00 0.00
0.04 0.02 0.01 0.02 0.02 0.01 0.02 0.03 0.04 0.05 0.04 0.03 0.01 0.01 0.02 0.00 0.00 0.00 0.00 0.00 0.00 0.00 0.00 0.00 0.00 0.00 0.00 0.00 0.00 0.00 0.00 0.00 0.00 0.00 0.00 0.00 0.00 0.00 0.00 0.00 0.00 0.00 0.00 0.00
0.05 0.05 0.02 0.01 0.02 0.02 0.02 0.03 0.05 0.06 0.05 0.01 0.00 0.01 0.00 0.00 0.00 0.00 0.00 0.00 0.00 0.00 0.00 0.00 0.00 0.00 0.00 0.00 0.00 0.00 0.00 0.00 0.00 0.00 0.00 0.00 0.00 0.00 0.00 0.00 0.00 0.00 0.00 0.00
0.06 0.04 0.02 0.01 0.01 0.01 0.02 0.03 0.03 0.03 0.03 0.01 0.00 0.00 0.00 0.00 0.00 0.00 0.00 0.00 0.00 0.00 0.00 0.00 0.00 0.00 0.00 0.00 0.00 0.00 0.00 0.00 0.00 0.00 0.00 0.00 0.00 0.00 0.00 0.00 0.00 0.00 0.00 0.00
0.04 0.02 0.02 0.01 0.01 0.02 0.02 0.02 0.02 0.03 0.02 0.01 0.00 0.00 0.00 0.00 0.00 0.00 0.00 0.00 0.00 0.00 0.00 0.00 0.00 0.00 0.00 0.00 0.00 0.00 0.00 0.00 0.00 0.00 0.00 0.00 0.00 0.00 0.00 0.00 0.00 0.00 0.00 0.00
0.02 0.01 0.01 0.01 0.01 0.01 0.01 0.01 0.02 0.02 0.01 0.01 0.00 0.00 0.00 0.00 0.00 0.00 0.00 0.00 0.00 0.00 0.00 0.00 0.00 0.00 0.00 0.00 0.00 0.00 0.00 0.00 0.00 0.00 0.00 0.00 0.00 0.00 0.00 0.00 0.00 0.00 0.00 0.00
0.01 0.01 0.00 0.00 0.00 0.00 0.00 0.01 0.02 0.01 0.00 0.01 0.00 0.00 0.00 0.00 0.00 0.00 0.00 0.00 0.00 0.00 0.00 0.00 0.00 0.00 0.00 0.00 0.00 0.00 0.00 0.00 0.00 0.00 0.00 0.00 0.00 0.00 0.00 0.00 0.00 0.00 0.00 0.00
0.01 0.02 0.01 0.01 0.00 0.00 0.00 0.01 0.01 0.00 0.00 0.00 0.01 0.00 0.00 0.00 0.00 0.00 0.00 0.00 0.00 0.00 0.00 0.00 0.00 0.00 0.00 0.00 0.00 0.00 0.00 0.00 0.00 0.00 0.00 0.00 0.00 0.00 0.00 0.00 0.00 0.00 0.00 0.00
0.01 0.01 0.01 0.01 0.00 0.00 0.00 0.00 0.00 0.00 0.00 0.00 0.00 0.00 0.00 0.00 0.00 0.00 0.00 0.00 0.00 0.00 0.00 0.00 0.00 0.00 0.00 0.00 0.00 0.00 0.00 0.00 0.00 0.00 0.00 0.00 0.00 0.00 0.00 0.00 0.00 0.00 0.00 0.00
0.00 0.00 0.01 0.00 0.00 0.00 0.00 0.00 0.00 0.00 0.00 0.00 0.00 0.00 0.00 0.00 0.00 0.00 0.00 0.00 0.00 0.00 0.00 0.00 0.00 0.00 0.00 0.00 0.00 0.00 0.00 0.00 0.00 0.00 0.00 0.00 0.00 0.00 0.00 0.00 0.00 0.00 0.00 0.00
0.00 0.00 0.00 0.00 0.00 0.00 0.00 0.00 0.00 0.00 0.00 0.00 0.00 0.00 0.00 0.00 0.00 0.00 0.00 0.00 0.00 0.00 0.00 0.00 0.00 0.00 0.00 0.00 0.00 0.00 0.00 0.00 0.00 0.00 0.00 0.00 0.00 0.00 0.00 0.00 0.00 0.00 0.00 0.00
0.00 0.00 0.00 0.00 0.00 0.00 0.00 0.00 0.00 0.00 0.00 0.00 0.00 0.00 0.00 0.00 0.00 0.00 0.00 0.00 0.00 0.00 0.00 0.00 0.00 0.00 0.00 0.00 0.00 0.00 0.00 0.00 0.00 0.00 0.00 0.00 0.00 0.00 0.00 0.00 0.00 0.00 0.00 0.00
0.00 0.00 0.00 0.00 0.00 0.00 0.00 0.00 0.00 0.00 0.00 0.00 0.00 0.00 0.00 0.00 0.00 0.00 0.00 0.00 0.00 0.00 0.00 0.00 0.00 0.00 0.00 0.00 0.00 0.00 0.00 0.00 0.00 0.00 0.00 0.00 0.00 0.00 0.00 0.00 0.00 0.00 0.00 0.00
0.00 0.00 0.00 0.00 0.00 0.00 0.00 0.00 0.00 0.00 0.00 0.00 0.00 0.00 0.00 0.00 0.00 0.00 0.00 0.00 0.00 0.00 0.00 0.00 0.00 0.00 0.00 0.00 0.00 0.00 0.00 0.00 0.00 0.00 0.00 0.00 0.00 0.00 0.00 0.00 0.00 0.00 0.00 0.00
0.00 0.00 0.00 0.00 0.00 0.00 0.00 0.00 0.00 0.00 0.00 0.00 0.00 0.00 0.00 0.00 0.00 0.00 0.00 0.00 0.00 0.00 0.00 0.00 0.00 0.00 0.00 0.00 0.00 0.00 0.00 0.00 0.00 0.00 0.00 0.00 0.00 0.00 0.00 0.00 0.00 0.00 0.00 0.00
0.00 0.00 0.00 0.00 0.00 0.00 0.00 0.00 0.00 0.00 0.00 0.00 0.00 0.00 0.00 0.00 0.00 0.00 0.00 0.00 0.00 0.00 0.00 0.00 0.00 0.00 0.00 0.00 0.00 0.00 0.00 0.00 0.00 0.00 0.00 0.00 0.00 0.00 0.00 0.00 0.00 0.00 0.00 0.00
0.00 0.00 0.00 0.00 0.00 0.00 0.00 0.00 0.00 0.00 0.00 0.00 0.00 0.00 0.00 0.00 0.00 0.00 0.00 0.00 0.00 0.00 0.00 0.00 0.00 0.00 0.00 0.00 0.00 0.00 0.00 0.00 0.00 0.00 0.00 0.00 0.00 0.00 0.00 0.00 0.00 0.00 0.00 0.00
0.00 0.00 0.00 0.00 0.00 0.00 0.00 0.00 0.00 0.00 0.00 0.00 0.00 0.00 0.00 0.00 0.00 0.00 0.00 0.00 0.00 0.00 0.00 0.00 0.00 0.00 0.00 0.00 0.00 0.00 0.00 0.00 0.00 0.00 0.00 0.00 0.00 0.00 0.00 0.00 0.00 0.00 0.00 0.00
0.00 0.00 0.00 0.00 0.00 0.00 0.00 0.00 0.00 0.00 0.00 0.00 0.00 0.00 0.00 0.00 0.00 0.00 0.00 0.00 0.00 0.00 0.00 0.00 0.00 0.00 0.00 0.00 0.00 0.00 0.00 0.00 0.00 0.00 0.00 0.00 0.00 0.00 0.00 0.00 0.00 0.00 0.00 0.00
0.00 0.00 0.00 0.00 0.00 0.00 0.00 0.00 0.00 0.00 0.00 0.00 0.00 0.00 0.00 0.00 0.00 0.00 0.00 0.00 0.00 0.00 0.00 0.00 0.00 0.00 0.00 0.00 0.00 0.00 0.00 0.00 0.00 0.00 0.00 0.00 0.00 0.00 0.00 0.00 0.00 0.00 0.00 0.00
0.00 0.00 0.00 0.00 0.00 0.00 0.00 0.00 0.00 0.00 0.00 0.00 0.00 0.00 0.00 0.00 0.00 0.00 0.00 0.00 0.00 0.00 0.00 0.00 0.00 0.00 0.00 0.00 0.00 0.00 0.00 0.00 0.00 0.00 0.00 0.00 0.00 0.00 0.00 0.00 0.00 0.00 0.00 0.00
MSLP
1010.21 1010.67 1011.00 1011.21 1011.34 1011.43 1011.50 1011.57 1011.65 1011.71 1011.72 1011.64 1011.47 1011.19 1010.82 1010.40 1010.00 1009.65 1009.40 1009.28 1009.29 1009.41 1009.60 1009.83 1010.07 1010.30 1010.51 1010.71 1010.93 1011.19 1011.50 1011.88 1012.30 1012.75 1013.19 1013.58 1013.89 1014.11 1014.22 1014.25 1014.23 1014.17 1014.13 1014.12
1010.30 1010.61 1010.81 1010.93 1011.01 1011.10 1011.21 1011.38 1011.57 1011.74 1011.85 1011.85 1011.72 1011.45 1011.07 1010.62 1010.18 1009.80 1009.54 1009.42 1009.43 1009.56 1009.76 1009.98 1010.20 1010.38 1010.53 1010.68 1010.85 1011.07 1011.37 1011.77 1012.23 1012.74 1013.24 1013.69 1014.04 1014.28 1014.39 1014.41 1014.36 1014.29 1014.24 1014.23
1010.28 1010.46 1010.56 1010.62 1010.68 1010.80 1010.99 1011.26 1011.55 1011.83 1012.03 1012.09 1011.99 1011.72 1011.32 1010.85 1010.37 1009.97 1009.70 1009.57 1009.59 1009.73 1009.93 1010.14 1010.33 1010.47 1010.57 1010.67 1010.79 1010.98 1011.28 1011.68 1012.18 1012.73 1013.27 1013.76 1014.14 1014.39 1014.50 1014.51 1014.44 1014.36 1014.30 1014.30
1010.24 1010.33 1010.36 1010.39 1010.47 1010.64 1010.92 1011.28 1011.68 1012.05 1012.31 1012.41 1012.31 1012.03 1011.60 1011.08 1010.58 1010.15 1009.85 1009.72 1009.74 1009.87 1010.07 1010.27 1010.43 1010.54 1010.61 1010.67 1010.76 1010.93 1011.22 1011.63 1012.15 1012.72 1013.29 1013.80 1014.20 1014.45 1014.56 1014.56 1014.48 1014.39 1014.33 1014.33
1010.29 1010.31 1010.30 1010.33 1010.44 1010.68 1011.04 1011.49 1011.97 1012.40 1012.69 1012.80 1012.69 1012.37 1011.89 1011.33 1010.78 1010.32 1010.00 1009.85 1009.86 1009.99 1010.17 1010.36 1010.51 1010.60 1010.64 1010.68 1010.75 1010.91 1011.20 1011.61 1012.13 1012.71 1013.29 1013.81 1014.21 1014.46 1014.56 1014.55 1014.47 1014.38 1014.32 1014.32
1010.48 1010.44 1010.41 1010.44 1010.59 1010.89 1011.31 1011.83 1012.36 1012.82 1013.12 1013.22 1013.08 1012.72 1012.19 1011.58 1010.99 1010.49 1010.14 1009.97 1009.97 1010.08 1010.25 1010.43 1010.56 1010.64 1010.67 1010.70 1010.77 1010.92 1011.20 1011.61 1012.12 1012.69 1013.25 1013.76 1014.14 1014.39 1014.49 1014.48 1014.41 1014.32 1014.27 1014.27
1010.78 1010.69 1010.64 1010.68 1010.86 1011.19 1011.66 1012.21 1012.76 1013.22 1013.51 1013.58 1013.41 1013.01 1012.45 1011.81 1011.19 1010.67 1010.30 1010.11 1010.09 1010.18 1010.34 1010.50 1010.62 1010.69 1010.72 1010.74 1010.80 1010.95 1011.21 1011.59 1012.08 1012.62 1013.15 1013.63 1014.00 1014.23 1014.34 1014.34 1014.28 1014.21 1014.17 1014.20
1011.08 1010.96 1010.89 1010.93 1011.11 1011.46 1011.94 1012.49 1013.03 1013.48 1013.75 1013.79 1013.59 1013.18 1012.61 1011.98 1011.36 1010.85 1010.49 1010.30 1010.26 1010.34 1010.48 1010.62 1010.72 1010.78 1010.80 1010.81 1010.85 1010.98 1011.22 1011.56 1012.00 1012.50 1012.99 1013.42 1013.76 1013.99 1014.10 1014.12 1014.09 1014.05 1014.04 1014.09
1011.24 1011.09 1011.00 1011.03 1011.22 1011.55 1012.02 1012.55 1013.06 1013.48 1013.72 1013.76 1013.56 1013.17 1012.65 1012.06 1011.49 1011.02 1010.70 1010.53 1010.50 1010.57 1010.69 1010.81 1010.89 1010.92 1010.92 1010.90 1010.93 1011.02 1011.22 1011.51 1011.89 1012.32 1012.76 1013.15 1013.46 1013.67 1013.79 1013.83 1013.84 1013.84 1013.87 1013.95
1011.12 1010.96 1010.87 1010.90 1011.07 1011.39 1011.82 1012.31 1012.78 1013.17 1013.40 1013.44 1013.28 1012.95 1012.51 1012.02 1011.56 1011.18 1010.93 1010.80 1010.80 1010.87 1010.97 1011.06 1011.11 1011.11 1011.08 1011.04 1011.02 1011.07 1011.21 1011.45 1011.76 1012.12 1012.49 1012.83 1013.11 1013.31 1013.44 1013.51 1013.55 1013.60 1013.68 1013.79
1010.65 1010.51 1010.44 1010.48 1010.65 1010.94 1011.34 1011.78 1012.20 1012.55 1012.78 1012.84 1012.75 1012.52 1012.20 1011.86 1011.54 1011.29 1011.14 1011.09 1011.13 1011.21 1011.31 1011.37 1011.39 1011.35 1011.28 1011.19 1011.14 1011.14 1011.22 1011.40 1011.64 1011.93 1012.24 1012.53 1012.78 1012.97 1013.10 1013.19 1013.27 1013.36 1013.47 1013.62
1009.88 1009.80 1009.78 1009.85 1010.03 1010.31 1010.66 1011.05 1011.43 1011.74 1011.95 1012.05 1012.03 1011.92 1011.75 1011.57 1011.42 1011.32 1011.30 1011.35 1011.45 1011.56 1011.65 1011.69 1011.68 1011.60 1011.49 1011.37 1011.28 1011.24 1011.27 1011.39 1011.58 1011.81 1012.06 1012.31 1012.52 1012.69 1012.83 1012.93 1013.03 1013.13 1013.27 1013.43
1008.95 1008.96 1009.03 1009.16 1009.36 1009.63 1009.94 1010.27 1010.58 1010.84 1011.04 1011.16 1011.22 1011.22 1011.20 1011.18 1011.20 1011.27 1011.38 1011.53 1011.69 1011.84 1011.94 1011.97 1011.94 1011.84 1011.71 1011.57 1011.45 1011.38 1011.39 1011.46 1011.60 1011.79 1012.00 1012.20 1012.39 1012.54 1012.66 1012.76 1012.85 1012.96 1013.09 1013.25
1008.05 1008.19 1008.36 1008.57 1008.80 1009.05 1009.32 1009.57 1009.81 1010.00 1010.16 1010.29 1010.39 1010.48 1010.58 1010.72 1010.90 1011.11 1011.35 1011.60 1011.84 1012.02 1012.14 1012.18 1012.15 1012.05 1011.91 1011.77 1011.65 1011.58 1011.57 1011.63 1011.75 1011.91 1012.09 1012.26 1012.41 1012.53 1012.63 1012.70 1012.77 1012.85 1012.95 1013.09
1007.39 1007.66 1007.93 1008.20 1008.46 1008.69 1008.89 1009.06 1009.20 1009.30 1009.40 1009.50 1009.61 1009.76 1009.96 1010.21 1010.52 1010.86 1011.21 1011.55 1011.85 1012.09 1012.24 1012.30 1012.28 1012.20 1012.09 1011.97 1011.88 1011.83 1011.84 1011.91 1012.02 1012.17 1012.32 1012.46 1012.58 1012.67 1012.73 1012.77 1012.79 1012.83 1012.88 1012.96
1007.08 1007.46 1007.82 1008.14 1008.39 1008.58 1008.70 1008.76 1008.78 1008.78 1008.78 1008.82 1008.92 1009.10 1009.35 1009.69 1010.08 1010.52 1010.96 1011.38 1011.75 1012.04 1012.23 1012.33 1012.35 1012.31 1012.25 1012.18 1012.13 1012.12 1012.17 1012.26 1012.39 1012.53 1012.67 1012.80 1012.89 1012.94 1012.95 1012.94 1012.91 1012.89 1012.87 1012.89
1007.13 1007.59 1007.99 1008.32 1008.54 1008.66 1008.68 1008.61 1008.50 1008.38 1008.29 1008.26 1008.32 1008.49 1008.78 1009.16 1009.62 1010.13 1010.64 1011.13 1011.55 1011.89 1012.14 1012.29 1012.36 1012.39 1012.38 1012.38 1012.39 1012.44 1012.54 1012.66 1012.81 1012.96 1013.10 1013.21 1013.27 1013.29 1013.26 1013.20 1013.12 1013.03 1012.95 1012.89
1007.45 1007.93 1008.33 1008.61 1008.77 1008.80 1008.70 1008.51 1008.28 1008.04 1007.85 1007.76 1007.78 1007.94 1008.24 1008.66 1009.17 1009.72 1010.29 1010.83 1011.30 1011.69 1011.99 1012.20 1012.34 1012.43 1012.50 1012.57 1012.65 1012.76 1012.91 1013.07 1013.24 1013.40 1013.54 1013.63 1013.67 1013.66 1013.60 1013.50 1013.37 1013.24 1013.11 1013.00
1007.85 1008.29 1008.63 1008.85 1008.91 1008.83 1008.62 1008.33 1007.99 1007.67 1007.42 1007.28 1007.28 1007.44 1007.75 1008.19 1008.73 1009.33 1009.94 1010.52 1011.03 1011.47 1011.82 1012.09 1012.30 1012.45 1012.59 1012.73 1012.88 1013.04 1013.23 1013.43 1013.62 1013.79 1013.92 1014.01 1014.04 1014.01 1013.93 1013.81 1013.66 1013.50 1013.34 1013.20
1008.13 1008.49 1008.74 1008.85 1008.82 1008.64 1008.34 1007.97 1007.57 1007.21 1006.93 1006.78 1006.79 1006.96 1007.30 1007.77 1008.34 1008.97 1009.61 1010.22 1010.77 1011.25 1011.65 1011.97 1012.23 1012.45 1012.65 1012.84 1013.05 1013.26 1013.48 1013.70 1013.90 1014.08 1014.21 1014.30 1014.32 1014.29 1014.21 1014.09 1013.95 1013.79 1013.63 1013.48
1008.13 1008.39 1008.53 1008.54 1008.41 1008.16 1007.82 1007.41 1007.00 1006.65 1006.39 1006.28 1006.32 1006.54 1006.91 1007.41 1008.01 1008.65 1009.31 1009.94 1010.52 1011.02 1011.45 1011.82 1012.12 1012.40 1012.65 1012.89 1013.13 1013.38 1013.62 1013.86 1014.07 1014.25 1014.39 1014.47 1014.51 1014.49 1014.42 1014.33 1014.21 1014.08 1013.94 1013.82
1007.82 1007.96 1008.00 1007.92 1007.73 1007.45 1007.09 1006.71 1006.35 1006.05 1005.86 1005.80 1005.91 1006.17 1006.58 1007.10 1007.72 1008.37 1009.03 1009.66 1010.25 1010.77 1011.22 1011.61 1011.96 1012.27 1012.56 1012.84 1013.12 1013.39 1013.65 1013.90 1014.12 1014.30 1014.45 1014.54 1014.59 1014.59 1014.56 1014.50 1014.42 1014.33 1014.25 1014.16
1007.22 1007.26 1007.22 1007.09 1006.88 1006.60 1006.29 1005.97 1005.69 1005.48 1005.37 1005.40 1005.57 1005.88 1006.31 1006.85 1007.46 1008.10 1008.74 1009.36 1009.93 1010.45 1010.92 1011.33 1011.70 1012.05 1012.37 1012.68 1012.99 1013.28 1013.57 1013.83 1014.06 1014.25 1014.40 1014.51 1014.58 1014.61 1014.61 1014.59 1014.56 1014.52 1014.49 1014.45
1006.47 1006.43 1006.34 1006.19 1006.00 1005.77 1005.54 1005.31 1005.13 1005.03 1005.02 1005.12 1005.34 1005.67 1006.11 1006.63 1007.21 1007.81 1008.41 1009.00 1009.55 1010.06 1010.52 1010.95 1011.34 1011.71 1012.07 1012.42 1012.75 1013.08 1013.38 1013.66 1013.90 1014.11 1014.28 1014.40 1014.49 1014.55 1014.58 1014.60 1014.61 1014.61 1014.62 1014.64
1005.73 1005.64 1005.53 1005.40 1005.26 1005.11 1004.96 1004.85 1004.77 1004.76 1004.82 1004.97 1005.22 1005.55 1005.96 1006.43 1006.95 1007.49 1008.03 1008.57 1009.08 1009.57 1010.03 1010.46 1010.88 1011.28 1011.67 1012.05 1012.42 1012.77 1013.11 1013.41 1013.68 1013.90 1014.09 1014.23 1014.34 1014.42 1014.47 1014.51 1014.55 1014.58 1014.62 1014.66
1005.13 1005.02 1004.93 1004.84 1004.77 1004.70 1004.65 1004.63 1004.64 1004.69 1004.80 1004.96 1005.19 1005.48 1005.83 1006.23 1006.66 1007.12 1007.59 1008.07 1008.54 1009.00 1009.45 1009.89 1010.32 1010.75 1011.18 1011.59 1012.00 1012.39 1012.76 1013.09 1013.39 1013.64 1013.84 1014.00 1014.13 1014.21 1014.28 1014.33 1014.37 1014.41 1014.45 1014.49
Thickness
5717 5713 5712 5725 5737 5742 5745 5738 5736 5746 5765 5759 5751 5752 5762 5772 5775 5774 5776 5775 5774 5776 5780 5781 5779 5776 5772 5768 5765 5762 5758 5755 5750 5746 5743 5739 5736 5736 5734 5732 5729 5726 5723 5720
5708 5709 5729 5741 5745 5744 5741 5734 5734 5749 5765 5760 5750 5751 5761 5769 5771 5775 5776 5775 5776 5775 5774 5774 5775 5773 5769 5765 5763 5762 5758 5754 5750 5746 5744 5740 5737 5735 5733 5731 5729 5726 5722 5719
5705 5722 5741 5742 5742 5739 5736 5735 5739 5744 5758 5761 5751 5741 5750 5764 5771 5773 5775 5777 5776 5774 5770 5769 5769 5768 5766 5763 5762 5761 5758 5754 5750 5746 5743 5739 5735 5732 5730 5728 5726 5725 5722 5718
5712 5733 5740 5738 5738 5740 5730 5749 5751 5752 5747 5738 5745 5717 5739 5755 5757 5762 5766 5769 5771 5772 5771 5770 5768 5765 5764 5763 5763 5762 5758 5753 5749 5746 5740 5735 5730 5727 5727 5727 5726 5724 5722 5718
5711 5729 5734 5731 5736 5742 5740 5758 5758 5758 5749 5741 5744 5728 5734 5752 5745 5751 5759 5763 5767 5768 5768 5767 5766 5765 5764 5764 5761 5759 5756 5752 5748 5745 5740 5735 5731 5730 5729 5727 5725 5723 5722 5719
5720 5738 5739 5739 5748 5750 5755 5756 5756 5755 5745 5723 5739 5731 5725 5743 5746 5751 5756 5760 5762 5764 5764 5764 5764 5763 5761 5760 5758 5756 5752 5749 5747 5744 5740 5736 5732 5730 5727 5725 5723 5721 5720 5718
5713 5729 5741 5749 5741 5747 5751 5739 5721 5713 5714 5721 5750 5738 5730 5748 5759 5758 5756 5756 5758 5760 5759 5758 5756 5756 5755 5754 5753 5752 5749 5746 5745 5743 5740 5738 5735 5732 5728 5726 5723 5720 5718 5716
5706 5709 5733 5744 5744 5741 5745 5741 5718 5703 5707 5727 5750 5732 5736 5757 5762 5763 5760 5758 5756 5756 5755 5754 5753 5752 5751 5750 5750 5749 5747 5745 5744 5742 5740 5739 5737 5733 5730 5728 5725 5722 5719 5717
5713 5715 5740 5748 5754 5752 5740 5735 5741 5727 5725 5730 5736 5735 5744 5757 5756 5756 5755 5753 5751 5751 5752 5751 5751 5751 5750 5748 5747 5747 5745 5744 5743 5742 5740 5738 5737 5734 5731 5729 5726 5724 5722 5719
5725 5719 5734 5746 5752 5752 5749 5747 5739 5727 5717 5719 5727 5727 5730 5741 5745 5749 5748 5747 5747 5749 5749 5748 5748 5748 5748 5747 5747 5747 5746 5744 5743 5741 5740 5738 5736 5734 5732 5728 5725 5723 5721 5719
5735 5725 5730 5739 5737 5739 5745 5744 5745 5740 5743 5733 5720 5726 5757 5752 5751 5748 5747 5746 5746 5745 5745 5744 5745 5746 5746 5746 5745 5744 5743 5742 5740 5739 5738 5736 5735 5733 5731 5728 5725 5722 5720 5718
5744 5738 5730 5741 5758 5765 5760 5756 5754 5739 5743 5750 5733 5725 5765 5760 5757 5752 5747 5746 5744 5743 5742 5742 5742 5742 5742 5741 5741 5741 5741 5739 5738 5737 5736 5734 5733 5731 5728 5726 5724 5722 5720 5718
5747 5737 5724 5727 5740 5754 5755 5760 5762 5759 5754 5747 5733 5722 5758 5757 5753 5750 5746 5743 5741 5740 5739 5739 5738 5737 5737 5737 5738 5737 5737 5736 5735 5734 5732 5730 5729 5727 5725 5724 5723 5721 5719 5716
5752 5742 5734 5725 5737 5750 5749 5755 5759 5756 5746 5746 5744 5730 5745 5747 5744 5744 5743 5741 5740 5738 5736 5734 5733 5733 5733 5734 5734 5734 5733 5733 5732 5729 5727 5724 5723 5723 5721 5721 5719 5718 5716 5713
5758 5742 5748 5753 5760 5762 5758 5756 5756 5753 5756 5750 5748 5741 5746 5748 5746 5745 5744 5741 5738 5735 5733 5732 5730 5730 5730 5730 5731 5730 5729 5729 5728 5725 5722 5719 5719 5718 5717 5715 5714 5712 5711 5710
5760 5749 5752 5750 5756 5758 5755 5759 5759 5757 5760 5758 5754 5749 5761 5758 5751 5746 5743 5739 5735 5732 5731 5730 5730 5729 5728 5727 5727 5727 5725 5725 5724 5720 5717 5716 5714 5712 5710 5709 5708 5706 5705 5704
5757 5751 5744 5743 5755 5751 5741 5758 5760 5759 5764 5761 5751 5755 5760 5752 5748 5746 5743 5739 5735 5732 5730 5728 5727 5726 5726 5726 5725 5723 5722 5722 5719 5716 5713 5711 5709 5706 5705 5704 5702 5700 5698 5697
5756 5752 5747 5742 5742 5722 5753 5778 5775 5765 5765 5768 5765 5763 5761 5756 5752 5750 5747 5740 5735 5731 5728 5726 5725 5724 5725 5724 5723 5721 5719 5717 5712 5709 5706 5704 5702 5700 5698 5697 5695 5693 5692 5690
5759 5748 5740 5737 5731 5739 5756 5768 5769 5759 5756 5770 5765 5762 5760 5756 5747 5743 5746 5742 5736 5731 5728 5725 5724 5723 5721 5719 5718 5716 5713 5710 5705 5701 5698 5697 5696 5693 5691 5688 5687 5686 5684 5682
5751 5749 5738 5735 5725 5725 5753 5774 5779 5765 5746 5770 5768 5760 5756 5747 5728 5733 5743 5739 5734 5730 5726 5723 5721 5719 5715 5713 5712 5709 5705 5702 5697 5694 5692 5690 5689 5686 5683 5681 5679 5678 5675 5673
5729 5731 5729 5728 5729 5743 5762 5772 5768 5738 5746 5771 5770 5763 5755 5745 5744 5747 5743 5736 5730 5725 5721 5718 5715 5711 5708 5707 5705 5701 5698 5694 5691 5689 5686 5684 5682 5679 5677 5674 5671 5668 5665 5663
5734 5729 5728 5729 5723 5733 5762 5762 5753 5755 5770 5770 5767 5762 5755 5748 5747 5743 5736 5729 5724 5718 5715 5712 5708 5704 5702 5701 5698 5694 5690 5688 5686 5682 5679 5677 5675 5673 5670 5665 5662 5658 5654 5650
5749 5748 5746 5743 5740 5758 5766 5763 5765 5767 5764 5763 5760 5757 5752 5743 5737 5732 5727 5721 5717 5713 5709 5706 5702 5698 5696 5694 5691 5685 5683 5681 5678 5674 5671 5669 5667 5664 5661 5656 5651 5647 5642 5637
5754 5759 5750 5745 5745 5752 5757 5759 5759 5760 5758 5758 5756 5752 5746 5737 5731 5725 5720 5715 5711 5707 5703 5700 5695 5691 5689 5687 5684 5680 5677 5674 5670 5666 5663 5661 5658 5654 5650 5646 5641 5635 5629 5624
5746 5746 5740 5736 5743 5745 5746 5749 5751 5750 5751 5749 5747 5744 5738 5732 5725 5719 5714 5709 5705 5701 5698 5693 5689 5684 5682 5680 5677 5674 5670 5666 5661 5657 5654 5651 5648 5643 5639 5635 5629 5624 5619 5613
5741 5737 5728 5726 5741 5739 5739 5745 5746 5741 5739 5738 5734 5731 5729 5725 5718 5713 5708 5703 5699 5694 5691 5686 5682 5678 5675 5673 5669 5665 5662 5657 5652 5648 5644 5640 5636 5631 5627 5622 5618 5615 5609 5604